THOR ABLESTAR DEB, 13512

Orbit data source: Space-Track

THOR ABLESTAR DEB, 13512 is space debris in LEO originally from a launch on Thu, 29 Jun 1961 UTC launched from the Air Force Eastern Test Range (AFETR). Debris objects in space refer to the collection of defunct objects orbiting the Earth. Examples of debris include non-operational satellites, rocket bodies, and fragments generated from explosions, collisions, or faulty payload assembly.

Loading next visibility...
Identifier
13512, 1961-015KV
Orbit
LEO
Country
Flag of USUS
Related business
Manufacturer
Unknown
Mission
Spacecraft
Bus & Motor
Unknown
Mass
Unknown
Launch date (UTC)
1961-06-29 (64 years ago)
Launch vehicle
Unknown
Launch site
Air Force Eastern Test Range (AFETR)
Object type
Payload
Rocket body
Debris
Shape & HBR
Unknown shape, 0.1 m
Radar Cross Section
Small (<0.1 m²)

Expand to show TLE details & history
Last TLE update: 9 hours ago

TLE from 9 hours ago
0 THOR ABLESTAR DEB
1 13512U 61015KV  25346.91434483  .00021039  00000-0  55086-2 0  9992
2 13512  65.4681 158.6108 0025779   0.3790 151.4410 14.49108281315645
Epoch: 2025-12-12T21:56Z
TLE epoch observation values (Epoch: 2025-12-12T21:56:39.393Z)
Latitude
25.3658°
Longitude
-84.83116°
Altitude
746.842 km
Speed
7.476 km/s
True Right ascension
21h 44m 43s
True Declination
25° 13' 58"
Sunlit
Object was in daylight at epoch
Visualization orbit readout
Latitude
Unknown
Longitude
Unknown
Altitude
Unknown
Speed
Unknown
Apparent Right ascension
Unknown
Apparent Declination
Unknown
Sunlit
N/A
Visualization observer readout
Local Sidereal Time
05:06:32
Azimuth
Unknown
Elevation
Unknown
Doppler factor
Unknown
Orbital elements
Apogee altitude
745.387 km
Perigee altitude
708.754 km
Semi-major axis
7,105.208 km
Eccentricity
0.00258
Inclination
65.4681°
RAAN
158.6108°
Arg. of periapsis
0.379°
True anomaly
151.58182°
Mean anomaly
151.441°
Eccentric anomaly
151.51145°
Mean motion
3.62391 °/min
Orbital period
99.34 mins
BSTAR
0.0055086
Loading maneuver chart data...
Computing Atmospheric mass density...
Loading historical data...
Loading historical data...
Loading historical data...
Loading historical data...
Loading historical data...
Loading historical data...
Loading historical data...

Documentation

Showing up to 5 results
|